www.pogodaiklimat.ru

Погода и климат >> Архив погоды >> Россия >> город Санкт-Петербург >> Санкт-Петербург


АРХИВ ПОГОДЫ в Санкт-Петербурге

Время (UTC), дата Ветер
(напр.,м/с)
 
Видим.   Явления Облачность Т
(С)
Тd
(С)
f
(%)
Тe
(С)
Тes
(С)
Комфортность P
(гПа)
Po
(гПа)
Тmin
(С)
Tmax
(С)
R
(мм)
R24
(мм)
S
(см)
21 9.08 Ю 2 10 км 6/0
[Cs]
+24.8 +13.5 49 +27 +27 жарко 1020.2 1019.5
00 10.08 ЮЗ 2 10 км ясно +23.0 +14.2 58 +27 +27 душно 1020.6 1019.9
03 10.08 ЮЗ 1 10 км 3/0
[Ac trans Ci fib]
+21.5 +14.7 65 +25 +25 комфорт 1020.8 1020.1 +21.4
06 10.08 ЮЗ 1 10 км 4/3 600 м
[Cu hum Ac trans]
+25.9 +15.1 51 +29 +32 душно 1020.9 1020.2 +21.4
09 10.08 ЮЗ 3 10 км 1/0
[Ci fib]
+29.9 +13.3 36 +31 +40 жарко 1020.5 1019.8
12 10.08 ЮЗ 4 10 км 3/3 600 м
[Cu hum]
+31.2 +10.5 28 +31 +35 жарко 1019.4 1018.7
15 10.08 Ю 3 10 км 4/3
[Cu hum Cs]
+30.7 +10.0 28 +30 +32 жарко 1018.2 1017.5
18 10.08 Ю 2 10 км 6/0
[Ci]
+27.6 +10.6 35 +28 +28 жарко 1017.7 1017.0 +31.7
21 10.08 Ю 3 10 км ясно +24.8 +11.4 43 +26 +26 жарко 1017.4 1016.7
00 11.08 Ю 3 10 км 8/8 1000 м
[Sc diur, vesp]
+23.7 +11.3 46 +25 +25 комфорт 1016.4 1015.7
03 11.08 Ю 2 10 км 8/0
[Cs]
+21.5 +11.8 54 +24 +24 комфорт 1015.7 1014.9 +21.5
06 11.08 ЮЗ 2 10 км 8/4 600 м
[Sc Ac As]
+22.5 +14.0 59 +26 +27 жарко 1015.7 1015.0 +21.1
09 11.08 З 2 10 км 10/6 540 м
[Sc diur, vesp Ac As]
+21.9 +16.1 70 +26 +27 душно 1016.4 1015.6
12 11.08 З 3 10 км 6/6 600 м
[Cu med, cong]
+23.3 +14.7 58 +27 +30 душно 1016.2 1015.5
15 11.08 З 2 10 км 8/5 600 м
[Cu med, cong Ac As]
+21.6 +10.8 50 +23 +24 комфорт 1015.6 1014.9
18 11.08 З 1 10 км 8/4 600 м
[Cu hum Ac As]
+20.2 +14.3 69 +24 +24 комфорт 1014.5 1013.7 +24.6
21 11.08 ЮЗ 1 10 км 10/6 540 м
[Cu hum Ac As]
+19.9 +12.4 62 +23 +23 комфорт 1013.3 1012.6
00 12.08 ЮЗ 1 10 км слабый дождь 10/10 300 м
[Frnb Ns]
+16.4 +13.9 85 +17 +17 тепло 1011.5 1010.8
03 12.08 С 1 4000 м слабый дождь 10/10 300 м
[Frnb Ns]
+14.8 +13.6 93 +15 +15 по сезону 1009.1 1008.4 +14.8 7
06 12.08 СЗ 1 4000 м слабая морось {дождь} 10/10 100 м
[St]
+15.6 +14.2 91 +16 +16 по сезону 1006.9 1006.2 +14.8 8
09 12.08 ЮЗ 2 4000 м слабая морось {дождь} 10/10 200 м
[St]
+16.7 +14.2 85 +17 +17 по сезону 1006.3 1005.6
12 12.08 ЮЗ 3 4000 м слабая морось {дождь} 10/10 100 м
[St]
+16.9 +14.2 84 +17 +17 прохладно 1004.7 1004.0
15 12.08 ЮЗ 2 10 км {дождь, морось} 8/8 600 м
[Sc]
+19.3 +12.8 66 +21 +22 комфорт 1002.3 1001.5 0.8
18 12.08 ЮЗ 2
{11}
10 км {ливн. осадки, дождь} 8/8 400 м
[Sc]
+14.9 +11.7 81 +15 +15 прохладно 1001.7 1001.0 +19.9 0.9
21 12.08 ЮЗ 3 10 км 6/3 330 м
[Sc Ac As]
+14.8 +12.5 86 +14 +14 прохладно 999.6 998.9
00 13.08 ЮЗ 3 10 км 8/3 330 м
[Sc Ac As]
+14.5 +11.9 84 +14 +14 по сезону 998.8 998.1
03 13.08 З 2 4000 м слабый ливневой дождь 10/10 300 м
[Cb calv]
+14.4 +13.0 91 +14 +14 по сезону 999.3 998.6 +14.0 1
06 13.08 СЗ 2 10 км {ливн. осадки} 9/4 600 м
[Cu med, cong Ac trans Ci fib]
+15.7 +12.5 81 +16 +17 по сезону 1001.7 1000.9 +13.6 4
09 13.08 З 4 10 км 9/3 600 м
[Cu med, cong Cs]
+18.5 +8.9 54 +19 +23 по сезону 1003.7 1002.9
12 13.08 СЗ 4-10
{14}
10 км 9/3 600 м
[Cu med, cong Cc]
+19.1 +9.9 55 +20 +23 по сезону 1005.0 1004.3
15 13.08 З 4
{12}
10 км 8/5 600 м
[Cu med, cong Ci fib]
+18.6 +9.7 56 +19 +20 по сезону 1005.8 1005.1 4
18 13.08 З 4
{10}
4000 м слабый дождь 10/10 300 м
[Sc diur, vesp As op]
+16.1 +12.2 78 +15 +15 прохладно 1006.7 1005.9 +19.8 0.4
21 13.08 ЮЗ 3 10 км в посл. час дождь 8/4 600 м
[Cu med, cong Ac As]
+15.8 +11.4 75 +15 +15 по сезону 1007.4 1006.7
00 14.08 З 2 10 км {дождь} ясно +15.1 +11.9 81 +15 +15 по сезону 1008.7 1007.9
03 14.08 З 1 10 км 3/3 600 м
[Sc]
+14.6 +12.2 86 +15 +15 по сезону 1010.0 1009.2 +14.4 0.4
06 14.08 З 2 10 км 8/8 1200 м
[Sc diur, vesp]
+16.2 +12.2 77 +16 +17 по сезону 1011.2 1010.5 +14.4 0.0
09 14.08 З 3 10 км 8/5 1000 м
[Sc diur, vesp Ac trans]
+18.3 +11.2 63 +19 +21 по сезону 1012.0 1011.3
12 14.08 З 2 10 км {дождь} 9/8 600 м
[Sc diur, vesp]
+17.8 +11.4 66 +18 +20 прохладно 1012.8 1012.0
15 14.08 З 2 10 км 8/0
[Ci sp]
+18.7 +11.3 62 +20 +22 тепло 1012.5 1011.7 0.0
18 14.08 штиль 0 10 км 9/0
[Ac trans Ci fib]
+16.5 +11.4 72 +16 +16 по сезону 1011.9 1011.2 +19.2 0.0
21 14.08 штиль 0 10 км 10/0
[As trans]
+15.4 +12.7 84 +15 +15 по сезону 1012.2 1011.5
00 15.08 В 1 10 км 10/0
[As trans]
+16.4 +10.0 66 +17 +17 тепло 1011.3 1010.6
03 15.08 штиль 0 10 км 9/0
[Ac trans]
+15.7 +10.4 71 +16 +16 по сезону 1010.3 1009.6 +14.8
06 15.08 штиль 0 10 км 10/8 1000 м
[St As trans]
+17.1 +11.6 70 +17 +18 по сезону 1009.9 1009.1 +14.8
09 15.08 В 1 10 км 10/3 600 м
[St As trans]
+18.4 +11.4 64 +20 +23 тепло 1010.0 1009.3
12 15.08 В 1 10 км 8/3 300 м
[Sc diur, vesp Ac As]
+20.9 +10.2 50 +24 +27 комфорт 1009.9 1009.2
15 15.08 СВ 1 10 км 4/0
[As op Cs]
+20.5 +9.7 50 +23 +25 комфорт 1010.7 1010.0
18 15.08 штиль 0 10 км 3/0
[As trans Ci fib]
+17.4 +10.7 65 +17 +17 по сезону 1012.3 1011.6 +22.1
21 15.08 штиль 0 10 км 6/0
[Cs]
+14.9 +12.8 87 +15 +15 по сезону 1013.7 1013.0
00 16.08 штиль 0 10 км ясно +13.4 +12.5 94 +13 +13 по сезону 1015.0 1014.2
03 16.08 штиль 0 10 км 3/0
[Cs]
+13.1 +12.5 96 +13 +13 по сезону 1016.4 1015.6 +12.7
06 16.08 С 1 10 км ясно +19.0 +13.0 68 +21 +26 комфорт 1017.9 1017.2 +12.7
09 16.08 З 2 10 км ясно +21.5 +12.8 58 +24 +34 комфорт 1018.8 1018.1
12 16.08 З 2 10 км ясно +23.3 +7.5 36 +24 +32 комфорт 1019.5 1018.8
15 16.08 штиль 0 10 км 6/3 600 м
[Cu hum Ac As Ci fib]
+23.0 +5.6 32 +23 +25 комфорт 1020.1 1019.4
18 16.08 В 1 10 км ясно +20.9 +11.7 56 +24 +24 комфорт 1020.6 1019.9 +24.3

 

Местоположение метеостанции Санкт-Петербург (город Санкт-Петербург, Россия): широта 59.97 долгота 30.30 высота над уровнем моря 6 м.

В архиве по умолчанию представлена погода в Санкт-Петербурге за последнюю неделю. Архивные данные за месяц целиком и за предыдущие месяцы, начиная с января 2011 года, Вы можете получить, выбрав интересующий диапазон дат из раскрывающегося списка и нажав кнопку "Ввод!".


*Определитесь, кто Вы:
робот инопланетянин человек

Внимание! Время в таблицах - всемирное. Для получения местного времени необходимо прибавить поправку, которая в Санкт-Петербурге равна 3 ч.

Смотрите также архив погоды в соседних городах и на ближайших метеорологических станциях:

Погода в Лисьем Носу (город Санкт-Петербург, Россия) (19 км)
Погода в Воейково (город Санкт-Петербург, Россия) (22 км)
Погода в Ломоносове (город Санкт-Петербург, Россия) (29 км)
Погода в Кронштадте (город Санкт-Петербург, Россия) (30 км)
Погода в Шлиссельбурге (Ленинградская область, Россия) (39 км)
Погода в Рощино (Ленинградская область, Россия) (48 км)
Погода в Шепелево (Ленинградская область, Россия) (58 км)
Погода в Сосново (Ленинградская область, Россия) (65 км)
Погода в Сосновом Бору (Ленинградская область, Россия) (65 км)
Погода в Белогорке (Ленинградская область, Россия) (70 км)

Пояснения к столбцам:

Ветер - указаны скорость ветра в м/с - средняя за 10 мин, порывы в срок и между сроками (в фигурных скобках) и направление, откуда дует ветер: С - северный, СВ - северо-восточный, В - восточный, ЮВ - юго-восточный, Ю - южный, ЮЗ - юго-западный, З - западный, СЗ - северо-западный.
Видимость - горизонтальная дальность видимости в метрах или километрах. При видимости от 1 до 10 км при отсутствии осадков обычно наблюдается дымка, при ухудшении видимости до 1 км и менее - туман. В сухую погоду видимость может ухудшаться дымом, пылью или мглою.
Явления - указаны атмосферные явления, наблюдавшиеся в срок или в последний час перед сроком; фигурными скобками обозначены явления, наблюдавшиеся между сроками (за 1-3 часа до срока); квадратными скобками обозначены град или гололедные отложения с указанием их диаметра в мм.
Облачность - указаны через наклонную черту общая и нижняя облачность в баллах и высота нижней границы облаков в метрах; квадратными скобками обозначены формы облаков: Ci - перистые, Cs - перисто-слоистые, Cc - перисто-кучевые, Ac - высококучевые, As - высокослоистые, Sc - слоисто-кучевые, Ns - слоисто-дождевые, Cu - кучевые, Cb - кучево-дождевые. Подробнее классификацию облаков см. в Атласе облаков (PDF).
T - Температура воздуха - температура, измеренная на высоте 2 м над землей.
Td - Температура точки росы - температура, при понижении до которой содержащийся в воздухе водяной пар достигнет насыщения.
f - Относительная влажность воздуха - влажноcть воздуха, измеренная на высоте 2 м над землей.
Te - Эффективная температура - температура, которую ощущает одетый по сезону человек в тени. Характеристика душности погоды. При расчете учитывается влияние влажности воздуха и скорости ветра на теплоощущения человека.
Tes - Эффективная температура на солнце - температура, которую ощущает человек, с поправкой на солнечный нагрев. Характеристика знойности погоды. Зависит от высоты солнца над горизонтом, облачности и скорости ветра. Ночью, в пасмурную погоду, а также при ветре 12 м/с и более поправка равна нулю.
P - Атмосферное давление - приведенное к уровню моря атмосферное давление.
Po - Атмосферное давление - измеренное на уровне метеостанции атмосферное давление.
Tmin - Минимальная температура - минимум температуры воздуха на высоте 2 м над землей.
Tmax - Максимальная температура - максимум температуры воздуха на высоте 2 м над землей.
R - Количество осадков - Количество выпавших осадков за период времени, мм. При наведении курсора мыши на число - период времени, за который выпало указанное количество осадков.
R24 - Количество осадков - Количество выпавших осадков за 24 часа, мм.
S - Снежный покров - Высота снежного покрова, см. При наведении курсора мыши на число - состояние снежного покрова и степень покрытия местности в баллах.